This is the latest recevied weather packets stored in our database for station/object KD7CIH. If no packets are shown the sender has not sent any weather packets the latest 1 day(s).
| Time | Temp. | Humidity | Pressure | Rain* | Wind** | Luminosity | Snow |
|---|---|---|---|---|---|---|---|
| 1778060374 | -1.67° C | 82% | 1012 hPa | 0 mm | - | - | - |
| 1778059775 | -1.67° C | 79% | 1011.8 hPa | 0 mm | - | - | - |
| 1778059475 | -1.67° C | 80% | 1011.8 hPa | 0 mm | - | - | - |
| 1778059174 | -1.67° C | 79% | 1011.7 hPa | 0 mm | - | - | - |
| 1778058702 | -1.67° C | 78% | 1011.4 hPa | 0 mm | - | - | - |
| 1778057673 | -1.67° C | 78% | 1011.3 hPa | 0 mm | - | - | - |
| 1778057376 | -1.67° C | 77% | 1011.3 hPa | 0 mm | - | - | - |
| 1778056774 | -1.67° C | 77% | 1011.2 hPa | 0 mm | - | - | - |
| 1778054974 | -1.67° C | 77% | 1011.6 hPa | 0 mm | - | - | - |
| 1778054674 | -1.67° C | 77% | 1011.6 hPa | 0 mm | - | - | - |
| 1778053774 | -1.67° C | 76% | 1011.4 hPa | 0 mm | - | - | - |
| 1778053176 | -1.67° C | 77% | 1011.4 hPa | 0 mm | - | - | - |
| 1778052873 | -1.67° C | 77% | 1011.4 hPa | 0 mm | - | - | - |
| 1778052573 | -1.67° C | 77% | 1011.4 hPa | 0 mm | - | - | - |
| 1778052274 | -1.67° C | 77% | 1011.3 hPa | 0 mm | - | - | - |
| 1778051976 | -1.67° C | 77% | 1011.3 hPa | 0 mm | - | - | - |
| 1778051674 | -1.67° C | 78% | 1011.4 hPa | 0 mm | - | - | - |
| 1778051374 | -1.67° C | 78% | 1011.4 hPa | 0 mm | - | - | - |
| 1778051202 | -1.67° C | 79% | 1011.3 hPa | 0 mm | - | - | - |
| 1778050901 | -1.67° C | 79% | 1011.2 hPa | 0 mm | - | - | - |
| 1778050473 | -1.67° C | 80% | 1011.1 hPa | 0 mm | - | - | - |
| 1778050000 | -1.67° C | 82% | 1011.1 hPa | 0 mm | - | - | - |
| 1778049574 | -2.22° C | 85% | 1011.1 hPa | 0 mm | - | - | - |
| 1778049275 | -2.22° C | 86% | 1011.2 hPa | 0 mm | - | - | - |
| 1778048973 | -2.22° C | 87% | 1011.3 hPa | 0 mm | - | - | - |
* Rain latest hour (hover to see other rain measurements)
** Current wind speed in m/s (hover to see current wind gust speed)